Regional Weather Roundup
Issued by NWS Charleston, SC

Current Version | Previous Version | Graphics & Text | Print | Product List | Glossary On
Versions: 1 2 3 4 5 6 7 8 9 10 11 12 13 14 15 16 17 18 19 20 21 22 23 24 25 26 27 28 29 30 31 32 33 34 35 36 37 38 39 40 41 42 43 44 45 46 47 48 49 50
000
ASUS42 KCHS 210310
RWRCHS
REGIONAL WEATHER ROUNDUP
NATIONAL WEATHER SERVICE CHARLESTON SC
1100 PM EDT SUN APR 20 2014

NOTE: "FAIR" INDICATES FEW OR NO CLOUDS BELOW 12,000 FEET WITH NO
SIGNIFICANT WEATHER AND/OR OBSTRUCTIONS TO VISIBILITY.

NOT ALL STATIONS ARE QUALITY CONTROLLED BY THE NATIONAL
WEATHER SERVICE. USE DATA WITH CAUTION...ESPECIALLY
DEWPOINT OBSERVATIONS.

SCZ027-030-031-034>040-042>050-210400-
...SOUTH CAROLINA...

CITY           SKY/WX    TMP DP  RH WIND       PRES   REMARKS
N CHARLESTON   CLOUDY    63  51  65 NE15G25   30.12S
WATERFRONT PRK   N/A     61 N/A N/A N23         N/A
FORT JOHNSON   NOT AVBL
MOUNT PLEASANT CLOUDY   N/A N/A N/A N9G18     30.10F
JOHNS ISLAND   CLOUDY    63  55  77 N17G23    30.11S
PINOPOLIS        N/A     63  52  67 NE22      30.05R
MONCKS CORNER  FAIR      63  55  77 NE10G18   30.13R
SUMMERVILLE    NOT AVBL
BEAUFORT MCAS  CLOUDY    63  48  58 NE14      30.11F
BEAUFORT ARPT  FAIR      63  52  67 N12       30.11S
HILTON HEAD IS NOT AVBL
GEORGETOWN     NOT AVBL
WALTERBORO     MOCLDY    59  50  72 N5        30.13S
ORANGEBURG     CLOUDY    63  44  50 N8        30.15S
BARNWELL       CLOUDY    63  45  51 N6        30.15F
AIKEN          FAIR      59  46  63 CALM      30.18F
MANNING        CLOUDY    63  36  36 N9        30.14S
KINGSTREE      NOT AVBL
COLUMBIA       CLOUDY    65  41  41 NE7       30.16S
SUMTER         CLOUDY    59  47  64 N7        30.14S
FLORENCE       CLOUDY    62  48  60 NE12      30.16S
MYRTLE BEACH   CLOUDY    57  45  62 N22G28    30.11R
N MYRTLE BEACH CLOUDY    58  45  62 N15G23    30.10S

$$

GAZ063-065-086>088-099>101-113>116-118-119-134-136>141-150-210400-
...GEORGIA...

CITY           SKY/WX    TMP DP  RH WIND       PRES   REMARKS
SAVANNAH ARPT  PTCLDY    61  50  67 N7        30.12F
HUNTER AAF     CLOUDY    63  51  65 CALM      30.10S
FORT STEWART   PTCLDY    59  54  84 N3        30.11F
STATESBORO     NOT AVBL
SYLVANIA       MOCLDY    61  51  68 CALM      30.15S
CLAXTON        FAIR      57  57 100 CALM      30.14S
THOMSON        CLEAR     52  51  94 CALM      30.21S
AUGUSTA-BUSH   PTCLDY    59  44  57 N5        30.15S
AUGUSTA-DANIEL CLEAR     64  42  44 NE6       30.16S
SWAINSBORO     FAIR      59  50  72 CALM      30.15F
VIDALIA        PTCLDY    61  52  72 NE3       30.15S
ALMA           CLOUDY    63  53  70 NE5       30.13S
WAYCROSS       NOT AVBL
JESUP          CLOUDY    61  54  77 CALM      30.13S
BRUNSWICK      CLOUDY    61  59  94 N3        30.12F
SAINT SIMONS   CLOUDY    61  57  87 CALM      30.11F

$$

SCZ027-028-034-036>038-045-046-048>050-GAZ119-141-210400-
...LAKE AND SUPPLEMENTAL COASTAL OBSERVATIONS...

STATION/POSITION TIME  TEMP    WIND        PRES    WAVE   SWELL
                       AIR SEA DIR/SP/G            HT/PER HT/PER/DIR
                 (UTC) (F)     (DEG/KT/KT) (MB)    (FT/S) (FT/S/D)
UPR LAKE MARION  NOT AVBL
WINYAH BAY       0200   60     360/ 13     1019.0S
LAKE MURRAY      0200   63      CALM  /  3 1021.3R
ACE BASIN NERRS  0200   63     350/  3     1020.0S
FORT PULASKI     0300   64 58  350/ 10/ 11 1019.9R
SAPELO ISLAND    0200   63      10/  4     1020.0R

$$

ANZ835-935-AMZ111-154-330-350-352-354-374-450-454-472-210400-
...C-MAN AND BUOY OBSERVATIONS...

STATION/POSITION TIME  TEMP    WIND        PRES    WAVE   SWELL
                       AIR SEA DIR/SP/G            HT/PER HT/PER/DIR
                 (UTC) (F)     (DEG/KT/KT) (MB)    (FT/S) (FT/S/D)
FOLLY BEACH CMAN 0200   63      10/ 16/ 19 1019.8R
BUOY 41004       NOT AVBL
BUOY 41008       0300   64 63   20/ 17/ 21 1018.8F   5/11   3/100/11
5E ST. MARYS GA  0300      63                N/A     5/ 6   2/ 80/11
FRYING PAN BUOY  0300   58 69   20/ 31/ 39 1015.8R  12/ 8   2/340/17
BUOY 41025       0300   59 76   10/ 31/ 37 1014.8S  15/11  10/ 50/11
CAPE LOOKOUT NC  0200   52      10/ 29/ 35 1018.0R
BUOY 41002       NOT AVBL
BUOY 41010       0300   71 75  330/ 19/ 23 1014.8S   8/ 9   7/ 20/ 9
BUOY 41012       NOT AVBL
ST AUGUSTINE FL  0300   61     320/  6/  7 1020.1R
CAPERS NEARSHORE NOT AVBL
FRIPP NEARSHORE  0200   63      10/ 16/ 19   N/A


$$



USA.gov is the U.S. government's official web portal to all federal, state and local government web resources and services.